Regional Weather Roundup
Issued by NWS

Home | Current Version | Previous Version | Text Only | Print | Product List | Glossary On
Versions: 1 2 3 4 5 6 7 8 9 10 11 12 13 14 15 16 17 18 19 20 21 22 23 24 25 26 27 28 29 30 31 32 33 34 35 36 37 38 39 40 41 42 43 44 45 46 47 48 49 50
000
ASUS42 KKEY 252010
RWRKEY

FLORIDA REGIONAL WEATHER ROUNDUP FOR THE FLORIDA KEYS
NATIONAL WEATHER SERVICE KEY WEST FLORIDA
400 PM EDT WED APR 25 2018

...SOUTH FLORIDA AND THE KEYS...

CITY           SKY/WX    TMP DP  RH WIND       PRES   REMARKS
FORT MYERS     FAIR      82  58  43 W16G23    29.91F
SW REGIONAL AP FAIR      81  58  45 NW13G22   29.92F
NAPLES         FAIR      79  64  60 W16       29.92F
MIAMI          PTSUNNY   80  65  59 SE14      29.90F
WEST KENDALL   FAIR      89  59  36 SW12G23   29.90F
HOMESTEAD      FAIR      84  67  57 SE13      29.89F
MARATHON       FAIR      82  66  58 W7        29.94F
KEY WEST INTL  FAIR      83  70  64 VRB7      29.95F

...INTERNATIONAL WEATHER...

CITY           SKY/WX    TMP DP  RH WIND       PRES   REMARKS
NASSAU BAHAMAS MOSUNNY   88  73  62 S7        29.92F HX  96
CANCUN MEXICO  TSTM      79  75  89 E8        29.92F
COZUMEL MEXICO PTSUNNY   88  72  58 S7        29.90F HX  94

ADJACENT COASTAL WATERS...

STATION/POSITION TIME  SKY/WX   TEMP    WIND        PRES    WAVE
                                AIR SEA DIR/SP/G            HT/PER
                 (UTC)          (F)     (DEG/KT/KT) (MB)    (FT/S)
PULASKI SHOAL LI 2000            76     350/  5/  6 1014.4F
SAND KEY         1950            76                 1014.2F
SOMBRERO KEY     1950            76     280/  3/  5 1013.4F
LONG KEY         2000            77 85  320/  8/  9 1013.5F
MOLASSES REEF    2000            76 78  260/  4/  8 1013.5F
FOWEY ROCKS      2000            78 80  170/ 11/ 13 1013.3F
Buoy 42078       1930               81                N/A     1/ 6
Buoy 42097       1930               78                N/A     2/ 4

$$



USA.gov is the U.S. government's official web portal to all federal, state and local government web resources and services.